Weather History for Wahoo, NE

Change the Weather History Date:

Sunday, March 3, 2013

  Actual Average Record
Temperature  
Mean Temperature 34 °F -  
Max Temperature 41 °F 45 °F 79 °F (1983)
Min Temperature 27 °F 25 °F -7 °F (2014)
Degree Days  
Heating Degree Days 31    
Moisture  
Dew Point 28 °F    
Average Humidity 80    
Maximum Humidity 90    
Minimum Humidity 70    
Precipitation  
Precipitation 0.00 in - - ()
Sea Level Pressure  
Sea Level Pressure 29.86 in    
Wind  
Wind Speed 11 mph (SE)    
Max Wind Speed 20 mph    
Max Gust Speed 24 mph    
Visibility 9 miles    
Events      
Averages and records for this station are not official NWS values.
T = Trace of Precipitation, MM = Missing Value Source: NWS Daily Summary

Daily Weather History Graph

Daily Weather History Graph

Search for Another Location

Airport:

Trip Planner

Search our weather history database for the weather conditions in past years. The results will help you decide how hot, cold, wet, or windy it might be!

Date:

Astronomy

Mar. 03, 2013 Rise Set
Actual Time 6:57 AM CST 6:19 PM CST
Civil Twilight 6:29 AM CST 6:47 PM CST
Nautical Twilight 5:57 AM CST 7:19 PM CST
Astronomical Twilight 5:25 AM CST 7:51 PM CST
Moon 12:03 AM CST (3/3) 10:09 AM CST (3/3)
Length of Visible Light 12h 17m
Length of Day
11h 22m
Waning Gibbous, 63% of the Moon is Illuminated
Mar 3
Waning Gibbous
Mar 4
Last Quarter
Mar 11
New
Mar 19
First Quarter
Mar 27
Full

Hourly Weather History & Observations

Time (CST) Temp. Windchill Dew Point Humidity Pressure Visibility Wind Dir Wind Speed Gust Speed Precip Events Conditions
12:15 AM 30.0 °F 21.7 °F 26.2 °F 86% 30.07 in 10.0 mi SE 9.2 mph - N/A   Clear
12:35 AM 30.0 °F 21.7 °F 26.4 °F 86% 30.05 in 10.0 mi SE 9.2 mph - N/A   Clear
12:55 AM 30.2 °F 22.6 °F 26.2 °F 85% 30.04 in 10.0 mi SSE 8.1 mph - N/A   Clear
1:15 AM 30.2 °F 22.6 °F 25.7 °F 83% 30.04 in 10.0 mi SSE 8.1 mph - N/A   Clear
1:55 AM 29.7 °F 21.3 °F 25.5 °F 85% 30.03 in 10.0 mi SSE 9.2 mph - N/A   Clear
2:15 AM 29.8 °F 20.9 °F 25.3 °F 83% 30.02 in 10.0 mi SSE 10.4 mph - N/A   Clear
2:35 AM 29.7 °F 22.0 °F 25.2 °F 83% 30.02 in 10.0 mi SSE 8.1 mph - N/A   Clear
2:55 AM 29.7 °F 22.0 °F 25.3 °F 84% 30.00 in 10.0 mi SSE 8.1 mph - N/A   Clear
3:15 AM 29.1 °F 21.3 °F 25.2 °F 85% 29.98 in 10.0 mi SSE 8.1 mph - N/A   Clear
3:35 AM 28.8 °F 20.9 °F 25.2 °F 86% 29.98 in 10.0 mi SSE 8.1 mph - N/A   Clear
3:55 AM 27.5 °F 20.2 °F 24.8 °F 90% 29.97 in 10.0 mi SE 6.9 mph - N/A   Clear
4:15 AM 27.7 °F 20.4 °F 25.0 °F 90% 29.97 in 10.0 mi SE 6.9 mph - N/A   Clear
4:35 AM 27.7 °F 20.4 °F 24.8 °F 89% 29.96 in 10.0 mi SE 6.9 mph - N/A   Clear
4:55 AM 27.9 °F 20.6 °F 24.8 °F 88% 29.95 in 10.0 mi SE 6.9 mph - N/A   Clear
5:15 AM 27.5 °F 19.3 °F 24.8 °F 90% 29.95 in 7.0 mi SE 8.1 mph - N/A   Clear
5:35 AM 27.3 °F 19.9 °F 24.6 °F 90% 29.95 in 7.0 mi ESE 6.9 mph - N/A   Clear
5:55 AM 27.3 °F 18.4 °F 24.6 °F 90% 29.94 in 7.0 mi SE 9.2 mph - N/A   Clear
6:15 AM 27.1 °F 18.9 °F 24.4 °F 90% 29.95 in 7.0 mi ESE 8.1 mph - N/A   Clear
6:35 AM 27.3 °F 19.1 °F 24.4 °F 89% 29.95 in 7.0 mi ESE 8.1 mph - N/A   Clear
6:55 AM 27.3 °F 18.4 °F 24.4 °F 89% 29.95 in 7.0 mi SE 9.2 mph - N/A   Clear
7:15 AM 27.1 °F 18.2 °F 24.3 °F 89% 29.94 in 7.0 mi SE 9.2 mph - N/A   Clear
7:35 AM 27.5 °F 19.3 °F 24.6 °F 89% 29.94 in 5.0 mi ESE 8.1 mph - N/A   Clear
7:55 AM 28.0 °F 18.6 °F 24.8 °F 88% 29.94 in 7.0 mi SE 10.4 mph - N/A   Clear
8:15 AM 29.1 °F 19.4 °F 25.0 °F 85% 29.93 in 7.0 mi SE 11.5 mph - N/A   Clear
8:35 AM 30.2 °F 19.8 °F 25.3 °F 82% 29.92 in 7.0 mi SE 13.8 mph - N/A   Clear
8:55 AM 31.1 °F 21.4 °F 25.7 °F 80% 29.92 in 7.0 mi SE 12.7 mph - N/A   Clear
9:15 AM 32.0 °F 22.5 °F 26.4 °F 80% 29.92 in 7.0 mi SE 12.7 mph - N/A   Clear
9:35 AM 32.2 °F 23.2 °F 26.4 °F 79% 29.92 in 7.0 mi SE 11.5 mph - N/A   Clear
9:55 AM 33.3 °F 24.6 °F 27.1 °F 78% 29.91 in 7.0 mi SE 11.5 mph - N/A   Clear
10:15 AM 34.2 °F 25.7 °F 27.5 °F 77% 29.90 in 7.0 mi SE 11.5 mph - N/A   Clear
10:35 AM 34.7 °F 26.9 °F 28.2 °F 77% 29.90 in 10.0 mi SE 10.4 mph - N/A   Clear
10:55 AM 35.2 °F 27.6 °F 28.8 °F 77% 29.90 in 10.0 mi SSE 10.4 mph - N/A   Clear
11:15 AM 36.0 °F 27.5 °F 29.5 °F 77% 29.87 in 10.0 mi ESE 12.7 mph - N/A   Clear
11:35 AM 37.0 °F 28.5 °F 29.8 °F 75% 29.87 in 7.0 mi SE 13.8 mph - N/A   Clear
11:55 AM 37.0 °F 28.9 °F 30.0 °F 76% 29.86 in 10.0 mi SE 12.7 mph - N/A   Clear
12:15 PM 37.9 °F 29.2 °F 30.2 °F 74% 29.86 in 10.0 mi SE 15.0 mph - N/A   Clear
12:35 PM 38.7 °F 30.5 °F 30.7 °F 73% 29.84 in 10.0 mi SE 13.8 mph - N/A   Clear
12:55 PM 39.0 °F 31.4 °F 30.9 °F 73% 29.83 in 10.0 mi SE 12.7 mph - N/A   Clear
1:15 PM 39.9 °F 31.8 °F 31.3 °F 71% 29.82 in 10.0 mi ESE 15.0 mph - N/A   Clear
1:35 PM 39.6 °F 31.3 °F 31.3 °F 72% 29.81 in 10.0 mi SE 15.0 mph - N/A   Clear
1:55 PM 40.6 °F 33.4 °F 31.8 °F 71% 29.82 in 10.0 mi SE 12.7 mph - N/A   Clear
2:15 PM 40.3 °F 31.9 °F 31.6 °F 71% 29.80 in 10.0 mi SE 16.1 mph - N/A   Clear
2:35 PM 40.5 °F 32.5 °F 31.8 °F 71% 29.79 in 10.0 mi SE 15.0 mph - N/A   Clear
2:55 PM 40.3 °F 33.0 °F 31.3 °F 70% 29.78 in 10.0 mi SE 12.7 mph - N/A   Clear
3:15 PM 40.5 °F 32.8 °F 32.0 °F 72% 29.77 in 10.0 mi SE 13.8 mph - N/A   Clear
3:35 PM 41.0 °F 33.9 °F 32.0 °F 70% 29.78 in 10.0 mi ESE 12.7 mph - N/A   Clear
3:55 PM 40.6 °F 32.3 °F 31.8 °F 71% 29.77 in 10.0 mi ESE 16.1 mph - N/A   Scattered Clouds
4:15 PM 40.6 °F 33.4 °F 31.8 °F 71% 29.77 in 10.0 mi SE 12.7 mph 21.9 mph N/A   Clear
4:35 PM 40.1 °F 32.7 °F 32.0 °F 73% 29.75 in 10.0 mi ESE 12.7 mph - N/A   Clear
4:55 PM 40.1 °F 32.4 °F 32.2 °F 73% 29.74 in 10.0 mi ESE 13.8 mph - N/A   Clear
5:15 PM 39.2 °F 31.2 °F 32.0 °F 75% 29.72 in 10.0 mi ESE 13.8 mph - N/A   Clear
5:35 PM 38.3 °F 30.1 °F 30.9 °F 75% 29.75 in 10.0 mi SE 13.8 mph 24.2 mph N/A   Scattered Clouds
5:55 PM 37.4 °F 27.8 °F 30.7 °F 77% 29.73 in 10.0 mi ESE 17.3 mph - N/A   Mostly Cloudy
6:35 PM 36.7 °F 27.2 °F 30.2 °F 77% 29.73 in 10.0 mi ESE 16.1 mph - N/A   Overcast
6:55 PM 36.5 °F 26.3 °F 30.0 °F 77% 29.73 in 10.0 mi ESE 18.4 mph - N/A   Overcast
7:15 PM 36.0 °F 26.3 °F 29.7 °F 78% 29.75 in 10.0 mi ESE 16.1 mph - N/A   Overcast
7:35 PM 35.8 °F 25.7 °F 29.7 °F 78% 29.75 in 10.0 mi SE 17.3 mph 23.0 mph N/A   Overcast
7:55 PM 35.6 °F 24.8 °F 29.5 °F 78% 29.75 in 10.0 mi SE 19.6 mph - N/A   Overcast
8:15 PM 35.6 °F 26.6 °F 29.3 °F 78% 29.76 in 10.0 mi SE 13.8 mph 19.6 mph N/A   Overcast
8:35 PM 35.2 °F 26.6 °F 29.3 °F 79% 29.75 in 10.0 mi SE 12.7 mph - N/A   Overcast
8:55 PM 35.1 °F 26.4 °F 29.1 °F 79% 29.75 in 10.0 mi SE 12.7 mph 21.9 mph N/A   Overcast
9:15 PM 34.7 °F 24.7 °F 29.3 °F 81% 29.74 in 10.0 mi SE 16.1 mph 19.6 mph N/A   Overcast
9:35 PM 34.3 °F 25.9 °F 29.1 °F 81% 29.75 in 10.0 mi SE 11.5 mph - N/A   Overcast
9:55 PM 34.2 °F 25.2 °F 28.8 °F 81% 29.74 in 10.0 mi SE 12.7 mph - N/A   Overcast
10:15 PM 34.0 °F 25.5 °F 28.8 °F 81% 29.75 in 10.0 mi SE 11.5 mph - N/A   Mostly Cloudy
10:35 PM 33.8 °F 24.8 °F 28.8 °F 82% 29.74 in 10.0 mi SE 12.7 mph - N/A   Mostly Cloudy
10:55 PM 33.8 °F 23.9 °F 28.2 °F 80% 29.72 in 10.0 mi SE 15.0 mph - N/A   Scattered Clouds
11:15 PM 33.3 °F 23.2 °F 28.0 °F 81% 29.70 in 10.0 mi SE 15.0 mph - N/A   Clear
11:35 PM 33.3 °F 23.2 °F 27.5 °F 79% 29.70 in 10.0 mi SE 15.0 mph - N/A   Clear
11:55 PM 33.1 °F 23.0 °F 27.1 °F 79% 29.69 in 10.0 mi SE 15.0 mph - N/A   Clear